Regional Weather Roundup
Issued by NWS

Home | Current Version | Previous Version | Graphics & Text | Print | Product List | Glossary On
Versions: 1 2 3 4 5 6 7 8 9 10 11 12 13 14 15 16 17 18 19 20 21 22 23 24 25 26 27 28 29 30 31 32 33 34 35 36 37 38 39 40 41 42 43 44 45 46 47 48 49 50
000
ASUS43 KFSD 190702
RWRSD

WEATHER ROUNDUP FOR SOUTH DAKOTA
NATIONAL WEATHER SERVICE SIOUX FALLS SD
200 AM CDT SAT APR 19 2014

NOTE: "FAIR" INDICATES FEW OR NO CLOUDS BELOW 12,000 FEET WITH NO
SIGNIFICANT WEATHER AND/OR OBSTRUCTIONS TO VISIBILITY.


SDZ001>005-009-010-012>017-190800-
NORTHWEST AND NORTH CENTRAL SOUTH DAKOTA

CITY           SKY/WX    TMP DP  RH WIND       PRES   REMARKS
FAITH            N/A     46  37  71 NW25G48   29.84R
MOBRIDGE       MOCLDY    51  39  63 NW18      29.68R
$$

SDZ012>016-024>037-041>051-057-063-072>074-190800-
SOUTHWEST AND SOUTH CENTRAL SOUTH DAKOTA

CITY           SKY/WX    TMP DP  RH WIND       PRES   REMARKS
RAPID CTY ARPT CLOUDY    49  40  71 N38G49    29.86R
PIERRE         CLOUDY    62  41  46 NW22G33   29.69R
CUSTER         CLOUDY    49  33  54 NE8       29.87R
ELLSWORTH AFB  CLOUDY    48  42  77 NW32G44   29.86R
PHILIP         CLOUDY    55  40  56 NW22      29.80R
PINE RIDGE     CLOUDY    58  39  49 N3        29.82R
WINNER         FAIR      66  43  43 SW18G35   29.77R
$$

SDZ004>011-016>023-039-040-190800-
NORTHEAST SOUTH DAKOTA

CITY           SKY/WX    TMP DP  RH WIND       PRES   REMARKS
ABERDEEN       CLOUDY    56  41  57 S23G31    29.69F
WATERTOWN      CLOUDY    51  38  60 S20G31    29.82F
SISSETON         N/A     46  36  68 S21G30    29.81F
$$

SDZ017-020-022-023-036>040-048>070-190800-
SOUTHEAST SOUTH DAKOTA

CITY           SKY/WX    TMP DP  RH WIND       PRES   REMARKS
SIOUX FALLS    CLOUDY    55  39  54 S16G26    29.91F
HURON          CLOUDY    58  41  53 S17G32    29.76F
CHAMBERLAIN      N/A     65  43  44 SW25G31   29.76F
MITCHELL       CLOUDY    60  43  53 S15       29.85R
YANKTON        MOCLDY    55  39  54 S15       29.92S
$$

ABBREVIATIONS USED IN REMARKS
   TC - TEMPERATURE IN CELSIUS
  WCI - WIND CHILL INDEX
   HX - HEAT INDEX
  VSB - VISIBILITY




USA.gov is the U.S. government's official web portal to all federal, state and local government web resources and services.